Mumbai, India

9:40 PM IST on September 29, 2016 (GMT +0530)
Chhatrapati Shivaji International

Weather History for VABB - February, 2014

Change the Weather History Date:

Thursday, February 20, 2014

  Actual Average Record
Temperature  
Mean Temperature 78 °F -  
Max Temperature 88 °F 88 °F 98 °F (1999)
Min Temperature 68 °F 69 °F 58 °F (2013)
Cooling Degree Days 13    
Growing Degree Days 28 (Base 50)    
Moisture  
Dew Point 64 °F    
Average Humidity 61    
Maximum Humidity 74    
Minimum Humidity 30    
Precipitation  
Precipitation 0.00 in - - ()
Sea Level Pressure  
Sea Level Pressure 29.87 in    
Wind  
Wind Speed 4 mph ()    
Max Wind Speed 12 mph    
Max Gust Speed -    
Visibility 1.7 miles    
Events      
Averages and records for this station are not official NWS values.
T = Trace of Precipitation, MM = Missing Value Source: Averaged Metar Reports

Daily Weather History Graph

Daily Weather History Graph

Search for Another Location

Airport or City:

Trip Planner

Search our weather history database for the weather conditions in past years. The results will help you decide how hot, cold, wet, or windy it might be!

Date:

Astronomy

Feb. 20, 2014 Rise Set
Actual Time 7:04 AM IST 6:40 PM IST
Civil Twilight 6:41 AM IST 7:02 PM IST
Nautical Twilight 6:16 AM IST 7:28 PM IST
Astronomical Twilight 5:50 AM IST 7:54 PM IST
Moon 11:17 PM IST (2/20) 10:15 AM IST (2/20)
Length of Visible Light 12h 20m
Length of Day
11h 36m
Waning Gibbous, 75% of the Moon is Illuminated
Feb 20
Waning Gibbous
Feb 22
Last Quarter
Mar 1
New
Mar 8
First Quarter
Mar 16
Full

Hourly Weather History & Observations

Time (IST) Temp. Heat Index Dew Point Humidity Pressure Visibility Wind Dir Wind Speed Gust Speed Precip Events Conditions
12:10 AM 78.8 °F - 62.6 °F 57% 29.89 in 1.6 mi ESE 9.2 mph - N/A   Haze
12:40 AM 77.0 °F - 62.6 °F 61% 29.86 in 1.6 mi ESE 5.8 mph - N/A   Haze
1:10 AM 77.0 °F - 62.6 °F 61% 29.86 in 1.6 mi ESE 5.8 mph - N/A   Haze
1:40 AM 77.0 °F - 62.6 °F 61% 29.86 in 1.6 mi East 3.5 mph - N/A   Haze
2:10 AM 77.0 °F - 62.6 °F 61% 29.86 in 1.4 mi SE 4.6 mph - N/A   Haze
2:30 AM 73 °F - 64 °F 65% 29.85 in 1 mi Calm Calm - -   Smoke
2:40 AM 77.0 °F - 64.4 °F 65% 29.83 in 1.4 mi SW 3.5 mph - N/A   Haze
3:10 AM 75.2 °F - 66.2 °F 73% 29.83 in 1.4 mi South 5.8 mph - N/A   Haze
3:40 AM 77.0 °F - 64.4 °F 65% 29.83 in 1.4 mi Calm Calm - N/A   Haze
4:10 AM 75.2 °F - 64.4 °F 69% 29.83 in 1.4 mi Calm Calm - N/A   Haze
4:40 AM 75.2 °F - 64.4 °F 69% 29.83 in 1.4 mi North 3.5 mph - N/A   Haze
5:10 AM 75.2 °F - 64.4 °F 69% 29.83 in 1.4 mi NNW 3.5 mph - N/A   Haze
5:30 AM 71 °F - 65 °F 74% 29.83 in 1 mi Calm Calm - -   Haze
5:40 AM 75.2 °F - 62.6 °F 65% 29.83 in 1.4 mi Calm Calm - N/A   Haze
6:10 AM 73.4 °F - 60.8 °F 65% 29.83 in 1.4 mi Calm Calm - N/A   Haze
6:40 AM 75.2 °F - 62.6 °F 65% 29.86 in 1.4 mi Calm Calm - N/A   Haze
7:10 AM 73.4 °F - 62.6 °F 69% 29.86 in 1.1 mi Calm Calm - N/A   Haze
7:40 AM 73.4 °F - 64.4 °F 73% 29.89 in 1.1 mi Calm Calm - N/A   Haze
8:10 AM 75.2 °F - 66.2 °F 73% 29.89 in 1.0 mi Calm Calm - N/A   Haze
8:30 AM 73 °F - 66 °F 73% 29.90 in 1 mi Calm Calm - -   Haze
8:40 AM 75.2 °F - 64.4 °F 69% 29.89 in 1.1 mi Calm Calm - N/A   Haze
10:10 AM 82.4 °F 84.6 °F 66.2 °F 58% 29.92 in 1.4 mi SE 5.8 mph - N/A   Smoke
10:40 AM 86.0 °F 86.6 °F 62.6 °F 45% 29.92 in 1.4 mi ESE 4.6 mph - N/A   Smoke
11:10 AM 86.0 °F 87.3 °F 64.4 °F 48% 29.92 in 1.4 mi West 4.6 mph - N/A   Smoke
11:30 AM 86 °F - 63 °F 37% 29.91 in 1 mi WNW 4.6 mph - -   Smoke
11:40 AM 86.0 °F 87.3 °F 64.4 °F 48% 29.89 in 1.6 mi WSW 8.1 mph - N/A   Smoke
12:40 PM 84.2 °F 85.0 °F 62.6 °F 48% 29.86 in 1.9 mi West 11.5 mph - N/A   Smoke
1:10 PM 84.2 °F 83.8 °F 59.0 °F 42% 29.86 in 2.5 mi West 9.2 mph - N/A   Smoke
1:40 PM 84.2 °F 84.4 °F 60.8 °F 45% 29.86 in 2.5 mi West 10.4 mph - N/A   Smoke
2:10 PM 84.2 °F 85.6 °F 64.4 °F 51% 29.83 in 2.5 mi WNW 10.4 mph - N/A   Smoke
2:30 PM 89 °F - 62 °F 30% 29.82 in 1 mi NW 4.6 mph - -   Smoke
3:10 PM 82.4 °F 84.6 °F 66.2 °F 58% 29.83 in 3.1 mi WNW 10.4 mph - N/A   Smoke
3:40 PM 82.4 °F 84.6 °F 66.2 °F 58% 29.83 in 3.7 mi West 11.5 mph - N/A   Unknown
4:10 PM 80.6 °F 83.2 °F 68.0 °F 65% 29.83 in 3.7 mi WNW 11.5 mph - N/A   Unknown
4:40 PM 80.6 °F 83.2 °F 68.0 °F 65% 29.83 in 3.1 mi WNW 10.4 mph - N/A   Smoke
5:10 PM 80.6 °F 83.2 °F 68.0 °F 65% 29.83 in 2.5 mi West 10.4 mph - N/A   Smoke
5:30 PM 80 °F - 68 °F 58% 29.82 in 1 mi North 4.6 mph - -   Smoke
5:40 PM 78.8 °F - 66.2 °F 65% 29.83 in 2.5 mi WNW 10.4 mph - N/A   Haze
6:10 PM 78.8 °F - 68.0 °F 69% 29.86 in 2.2 mi WNW 10.4 mph - N/A   Haze
6:40 PM 78.8 °F - 66.2 °F 65% 29.86 in 2.2 mi West 9.2 mph - N/A   Haze
7:10 PM 77.0 °F - 66.2 °F 69% 29.86 in 2.2 mi WNW 5.8 mph - N/A   Haze
7:40 PM 77.0 °F - 64.4 °F 65% 29.89 in 2.2 mi West 5.8 mph - N/A   Haze
8:10 PM 77.0 °F - 62.6 °F 61% 29.89 in 2.2 mi WSW 3.5 mph - N/A   Haze
8:30 PM 77 °F - 63 °F 54% 29.89 in 1 mi Calm Calm - -   Smoke
8:40 PM 78.8 °F - 60.8 °F 54% 29.92 in 2.2 mi SSW 5.8 mph - N/A   Haze
9:40 PM 77.0 °F - 62.6 °F 61% 29.92 in 1.9 mi SSW 4.6 mph - N/A   Haze
10:10 PM 77.0 °F - 62.6 °F 61% 29.95 in 1.9 mi SSE 3.5 mph - N/A   Haze
10:40 PM 77.0 °F - 64.4 °F 65% 29.92 in 1.9 mi SE 3.5 mph - N/A   Haze
11:10 PM 77.0 °F - 66.2 °F 69% 29.92 in 1.6 mi SE 5.8 mph - N/A   Haze
11:30 PM 74 °F - 65 °F 67% 29.92 in 1 mi Calm Calm - -   Smoke
11:40 PM 77.0 °F - 68.0 °F 74% 29.92 in 1.5 mi ESE 5.8 mph - N/A   Haze